Wetterdaten: Samstag, 13.09.2014
Datum Zeit Temp. A. Feuchte A. Luftdruck Regen Wind Richtung Richtung Sonnenschein ET UV Solar Taupunkt Windchill Windben Empfang
13.09.2014 00:00 10,7 C 89 % 1016,5 hPa 0,0 l/m 0,0 km/h (0 Bft) S-SW 213 0 min 0,000 mm 0,0 UV-I 0 W/m 9,0 C 10,7 C 0,0 km/h (0 Bft) 0,00 %
13.09.2014 00:15 10,6 C 89 % 1016,7 hPa 0,0 l/m 0,0 km/h (0 Bft) S-SW 200 0 min 0,000 mm 0,0 UV-I 0 W/m 8,9 C 10,6 C 0,0 km/h (0 Bft) 0,00 %
13.09.2014 00:30 10,4 C 89 % 1016,5 hPa 0,0 l/m 0,0 km/h (0 Bft) SW 217 0 min 0,000 mm 0,0 UV-I 0 W/m 8,7 C 10,4 C 0,0 km/h (0 Bft) 0,00 %
13.09.2014 00:45 10,3 C 89 % 1016,7 hPa 0,0 l/m 0,0 km/h (0 Bft) SW 219 0 min 0,000 mm 0,0 UV-I 0 W/m 8,6 C 10,3 C 0,0 km/h (0 Bft) 0,00 %
13.09.2014 01:00 10,4 C 89 % 1016,6 hPa 0,0 l/m 0,0 km/h (0 Bft) S-SW 197 0 min 0,000 mm 0,0 UV-I 0 W/m 8,7 C 10,4 C 0,0 km/h (0 Bft) 0,00 %
13.09.2014 01:15 10,4 C 89 % 1016,7 hPa 0,0 l/m 0,0 km/h (0 Bft) W-SW 256 0 min 0,000 mm 0,0 UV-I 0 W/m 8,7 C 10,4 C 0,0 km/h (0 Bft) 0,00 %
13.09.2014 01:30 10,2 C 90 % 1016,9 hPa 0,0 l/m 0,0 km/h (0 Bft) S-SW 201 0 min 0,000 mm 0,0 UV-I 0 W/m 8,6 C 10,2 C 0,0 km/h (0 Bft) 0,00 %
13.09.2014 01:45 10,1 C 89 % 1017,1 hPa 0,0 l/m 0,0 km/h (0 Bft) W-NW 298 0 min 0,000 mm 0,0 UV-I 0 W/m 8,4 C 10,1 C 0,0 km/h (0 Bft) 0,00 %
13.09.2014 02:00 10,3 C 88 % 1016,8 hPa 0,0 l/m 0,0 km/h (0 Bft) SW 234 0 min 0,000 mm 0,0 UV-I 0 W/m 8,4 C 10,3 C 0,0 km/h (0 Bft) 0,00 %
13.09.2014 02:15 10,3 C 88 % 1016,9 hPa 0,0 l/m 0,0 km/h (0 Bft) S-SW 201 0 min 0,000 mm 0,0 UV-I 0 W/m 8,4 C 10,3 C 0,0 km/h (0 Bft) 0,00 %
13.09.2014 02:30 10,4 C 87 % 1017,1 hPa 0,0 l/m 0,0 km/h (0 Bft) S 183 0 min 0,000 mm 0,0 UV-I 0 W/m 8,3 C 10,4 C 0,0 km/h (0 Bft) 0,00 %
13.09.2014 02:45 10,6 C 86 % 1017,2 hPa 0,0 l/m 0,0 km/h (0 Bft) W-SW 251 0 min 0,000 mm 0,0 UV-I 0 W/m 8,4 C 10,6 C 0,0 km/h (0 Bft) 0,00 %
13.09.2014 03:00 10,5 C 87 % 1016,9 hPa 0,0 l/m 0,0 km/h (0 Bft) SW 216 0 min 0,000 mm 0,0 UV-I 0 W/m 8,4 C 10,5 C 0,0 km/h (0 Bft) 0,00 %
13.09.2014 03:15 10,5 C 89 % 1017,0 hPa 0,0 l/m 0,0 km/h (0 Bft) W-SW 256 0 min 0,000 mm 0,0 UV-I 0 W/m 8,8 C 10,5 C 0,0 km/h (0 Bft) 0,00 %
13.09.2014 03:30 10,5 C 88 % 1016,7 hPa 0,0 l/m 0,0 km/h (0 Bft) S-SW 194 0 min 0,000 mm 0,0 UV-I 0 W/m 8,6 C 10,5 C 0,0 km/h (0 Bft) 0,00 %
13.09.2014 03:45 10,5 C 88 % 1016,6 hPa 0,0 l/m 0,0 km/h (0 Bft) SW 224 0 min 0,000 mm 0,0 UV-I 0 W/m 8,6 C 10,5 C 0,0 km/h (0 Bft) 0,00 %
13.09.2014 04:00 10,4 C 88 % 1016,3 hPa 0,0 l/m 0,0 km/h (0 Bft) SW 225 0 min 0,000 mm 0,0 UV-I 0 W/m 8,5 C 10,4 C 0,0 km/h (0 Bft) 0,00 %
13.09.2014 04:15 10,2 C 88 % 1016,1 hPa 0,0 l/m 0,0 km/h (0 Bft) S 189 0 min 0,000 mm 0,0 UV-I 0 W/m 8,3 C 10,2 C 0,0 km/h (0 Bft) 0,00 %
13.09.2014 04:30 10,2 C 88 % 1016,4 hPa 0,0 l/m 0,0 km/h (0 Bft) W-SW 251 0 min 0,000 mm 0,0 UV-I 0 W/m 8,3 C 10,2 C 0,0 km/h (0 Bft) 0,00 %
13.09.2014 04:45 10,2 C 89 % 1016,3 hPa 0,0 l/m 0,0 km/h (0 Bft) W-NW 296 0 min 0,000 mm 0,0 UV-I 0 W/m 8,5 C 10,2 C 0,0 km/h (0 Bft) 0,00 %
13.09.2014 05:00 10,1 C 89 % 1016,3 hPa 0,0 l/m 0,0 km/h (0 Bft) W-SW 255 0 min 0,000 mm 0,0 UV-I 0 W/m 8,4 C 10,1 C 4,0 km/h (1 Bft) 0,00 %
13.09.2014 05:15 10,1 C 89 % 1015,8 hPa 0,0 l/m 0,0 km/h (0 Bft) W-SW 252 0 min 0,000 mm 0,0 UV-I 0 W/m 8,4 C 10,1 C 0,0 km/h (0 Bft) 0,00 %
13.09.2014 05:30 10,1 C 89 % 1016,0 hPa 0,0 l/m 0,0 km/h (0 Bft) SW 227 0 min 0,000 mm 0,0 UV-I 0 W/m 8,4 C 10,1 C 0,0 km/h (0 Bft) 0,00 %
13.09.2014 05:45 10,2 C 89 % 1016,2 hPa 0,0 l/m 0,4 km/h (0 Bft) SW 233 0 min 0,000 mm 0,0 UV-I 0 W/m 8,5 C 10,2 C 4,0 km/h (1 Bft) 0,00 %
13.09.2014 06:00 10,3 C 89 % 1016,2 hPa 0,0 l/m 0,0 km/h (0 Bft) SW 234 0 min 0,000 mm 0,0 UV-I 0 W/m 8,6 C 10,3 C 4,0 km/h (1 Bft) 0,00 %
13.09.2014 06:15 10,3 C 89 % 1016,4 hPa 0,0 l/m 0,0 km/h (0 Bft) W-SW 256 0 min 0,000 mm 0,0 UV-I 0 W/m 8,6 C 10,3 C 4,0 km/h (1 Bft) 0,00 %
13.09.2014 06:30 10,2 C 89 % 1016,6 hPa 0,9 l/m 0,4 km/h (0 Bft) NO 49 0 min 0,000 mm 0,0 UV-I 0 W/m 8,5 C 10,2 C 0,0 km/h (0 Bft) 0,00 %
13.09.2014 06:45 10,1 C 90 % 1016,6 hPa 1,2 l/m 1,8 km/h (1 Bft) S-SW 210 0 min 0,000 mm 0,0 UV-I 0 W/m 8,5 C 10,1 C 0,0 km/h (0 Bft) 0,00 %
13.09.2014 07:00 10,1 C 91 % 1016,6 hPa 0,6 l/m 0,7 km/h (0 Bft) S-SW 193 0 min 0,000 mm 0,0 UV-I 12 W/m 8,7 C 10,1 C 0,0 km/h (0 Bft) 0,00 %
13.09.2014 07:15 10,1 C 91 % 1016,4 hPa 0,9 l/m 0,0 km/h (0 Bft) W-SW 256 0 min 0,000 mm 1,0 UV-I 22 W/m 8,7 C 10,1 C 4,0 km/h (1 Bft) 0,00 %
13.09.2014 07:30 10,1 C 92 % 1016,7 hPa 0,3 l/m 0,0 km/h (0 Bft) SW 220 0 min 0,000 mm 1,0 UV-I 33 W/m 8,9 C 10,1 C 4,0 km/h (1 Bft) 0,00 %
13.09.2014 07:45 10,1 C 92 % 1016,8 hPa 0,6 l/m 0,0 km/h (0 Bft) W 272 0 min 0,000 mm 1,0 UV-I 23 W/m 8,9 C 10,1 C 0,0 km/h (0 Bft) 0,00 %
13.09.2014 08:00 10,3 C 92 % 1016,7 hPa 0,3 l/m 0,4 km/h (0 Bft) SW 214 0 min 0,000 mm 0,0 UV-I 28 W/m 9,1 C 10,3 C 0,0 km/h (0 Bft) 0,00 %
13.09.2014 08:15 10,5 C 92 % 1016,7 hPa 0,0 l/m 0,7 km/h (0 Bft) W-SW 252 0 min 0,000 mm 1,0 UV-I 23 W/m 9,3 C 10,5 C 4,0 km/h (1 Bft) 0,00 %
13.09.2014 08:30 10,6 C 92 % 1016,7 hPa 0,0 l/m 0,0 km/h (0 Bft) W-NW 282 0 min 0,000 mm 1,0 UV-I 34 W/m 9,4 C 10,6 C 7,9 km/h (2 Bft) 0,00 %
13.09.2014 08:45 10,6 C 92 % 1016,7 hPa 0,0 l/m 0,0 km/h (0 Bft) W-SW 252 0 min 0,000 mm 1,0 UV-I 55 W/m 9,4 C 10,6 C 0,0 km/h (0 Bft) 0,00 %
13.09.2014 09:00 10,6 C 92 % 1016,6 hPa 0,0 l/m 0,4 km/h (0 Bft) SW 229 0 min 0,000 mm 1,0 UV-I 55 W/m 9,4 C 10,6 C 0,0 km/h (0 Bft) 0,00 %
13.09.2014 09:15 10,7 C 92 % 1016,4 hPa 0,0 l/m 4,0 km/h (1 Bft) W-SW 255 0 min 0,000 mm 0,0 UV-I 54 W/m 9,5 C 10,7 C 7,9 km/h (2 Bft) 0,00 %
13.09.2014 09:30 10,7 C 92 % 1016,4 hPa 0,0 l/m 0,0 km/h (0 Bft) SW 218 0 min 0,000 mm 0,0 UV-I 60 W/m 9,5 C 10,7 C 4,0 km/h (1 Bft) 0,00 %
13.09.2014 09:45 10,7 C 92 % 1016,5 hPa 0,0 l/m 0,0 km/h (0 Bft) S-SW 206 0 min 0,000 mm 0,0 UV-I 66 W/m 9,5 C 10,7 C 0,0 km/h (0 Bft) 0,00 %
13.09.2014 10:00 10,7 C 91 % 1016,4 hPa 0,0 l/m 3,2 km/h (1 Bft) W-SW 252 0 min 0,000 mm 1,0 UV-I 90 W/m 9,3 C 10,7 C 4,0 km/h (1 Bft) 0,00 %
13.09.2014 10:15 10,7 C 91 % 1016,4 hPa 0,3 l/m 2,2 km/h (1 Bft) W-SW 253 0 min 0,000 mm 0,0 UV-I 71 W/m 9,3 C 10,7 C 4,0 km/h (1 Bft) 0,00 %
13.09.2014 10:30 10,7 C 91 % 1016,4 hPa 0,0 l/m 0,0 km/h (0 Bft) NW 305 0 min 0,000 mm 0,0 UV-I 40 W/m 9,3 C 10,7 C 4,0 km/h (1 Bft) 0,00 %
13.09.2014 10:45 10,7 C 92 % 1016,4 hPa 0,3 l/m 1,4 km/h (1 Bft) SW 235 0 min 0,000 mm 0,0 UV-I 9 W/m 9,5 C 10,7 C 7,9 km/h (2 Bft) 0,00 %
13.09.2014 11:00 10,8 C 92 % 1016,3 hPa 0,6 l/m 1,4 km/h (1 Bft) W-SW 252 0 min 0,000 mm 0,0 UV-I 0 W/m 9,6 C 10,8 C 4,0 km/h (1 Bft) 0,00 %
13.09.2014 11:15 10,8 C 92 % 1016,4 hPa 0,6 l/m 0,4 km/h (0 Bft) W-SW 256 0 min 0,000 mm 1,0 UV-I 280 W/m 9,6 C 10,8 C 4,0 km/h (1 Bft) 0,00 %
13.09.2014 11:30 10,7 C 92 % 1016,2 hPa 2,1 l/m 4,3 km/h (1 Bft) W-SW 256 0 min 0,000 mm 1,0 UV-I 271 W/m 9,5 C 10,7 C 4,0 km/h (1 Bft) 0,00 %
13.09.2014 11:45 10,6 C 92 % 1016,5 hPa 2,1 l/m 0,4 km/h (0 Bft) N-NW 343 0 min 0,000 mm 1,0 UV-I 222 W/m 9,4 C 10,6 C 4,0 km/h (1 Bft) 0,00 %
13.09.2014 12:00 10,7 C 93 % 1016,0 hPa 3,0 l/m 3,2 km/h (1 Bft) N-NW 338 0 min 0,000 mm 1,0 UV-I 145 W/m 9,6 C 10,7 C 11,9 km/h (2 Bft) 0,00 %
13.09.2014 12:15 10,8 C 93 % 1015,8 hPa 1,2 l/m 0,7 km/h (0 Bft) W-SW 255 0 min 0,000 mm 1,0 UV-I 187 W/m 9,7 C 10,8 C 4,0 km/h (1 Bft) 0,00 %
13.09.2014 12:30 11,0 C 92 % 1015,9 hPa 0,6 l/m 0,4 km/h (0 Bft) S-SO 150 0 min 0,000 mm 1,0 UV-I 245 W/m 9,8 C 11,0 C 0,0 km/h (0 Bft) 0,00 %
13.09.2014 12:45 11,1 C 92 % 1015,7 hPa 0,9 l/m 7,2 km/h (2 Bft) SW 214 0 min 0,000 mm 2,0 UV-I 222 W/m 9,8 C 10,5 C 0,0 km/h (0 Bft) 0,00 %
13.09.2014 13:00 11,1 C 92 % 1016,0 hPa 1,2 l/m 3,2 km/h (1 Bft) W-SW 256 0 min 0,000 mm 1,0 UV-I 256 W/m 9,8 C 11,1 C 7,9 km/h (2 Bft) 0,00 %
13.09.2014 13:15 11,2 C 92 % 1015,8 hPa 0,0 l/m 0,0 km/h (0 Bft) N-NO 29 0 min 0,000 mm 1,0 UV-I 244 W/m 9,9 C 11,2 C 4,0 km/h (1 Bft) 0,00 %
13.09.2014 13:30 11,3 C 92 % 1016,0 hPa 0,3 l/m 0,0 km/h (0 Bft) S 174 0 min 0,000 mm 1,0 UV-I 108 W/m 10,0 C 11,3 C 0,0 km/h (0 Bft) 0,00 %
13.09.2014 13:45 11,4 C 92 % 1015,9 hPa 0,6 l/m 4,7 km/h (1 Bft) SW 224 0 min 0,000 mm 1,0 UV-I 286 W/m 10,1 C 11,4 C 4,0 km/h (1 Bft) 0,00 %
13.09.2014 14:00 11,4 C 92 % 1016,0 hPa 0,3 l/m 1,8 km/h (1 Bft) W-SW 252 0 min 0,000 mm 1,0 UV-I 295 W/m 10,1 C 11,4 C 4,0 km/h (1 Bft) 0,00 %
13.09.2014 14:15 11,5 C 92 % 1016,1 hPa 0,6 l/m 0,0 km/h (0 Bft) O 80 0 min 0,000 mm 0,0 UV-I 74 W/m 10,2 C 11,5 C 0,0 km/h (0 Bft) 0,00 %
13.09.2014 14:30 11,4 C 92 % 1016,0 hPa 0,3 l/m 0,4 km/h (0 Bft) W-NW 300 0 min 0,000 mm 1,0 UV-I 210 W/m 10,1 C 11,4 C 0,0 km/h (0 Bft) 0,00 %
13.09.2014 14:45 11,5 C 92 % 1016,2 hPa 0,9 l/m 4,0 km/h (1 Bft) N 357 0 min 0,000 mm 1,0 UV-I 164 W/m 10,2 C 11,5 C 0,0 km/h (0 Bft) 0,00 %
13.09.2014 15:00 11,5 C 92 % 1016,2 hPa 0,3 l/m 0,0 km/h (0 Bft) W-SW 256 0 min 0,000 mm 1,0 UV-I 125 W/m 10,2 C 11,5 C 4,0 km/h (1 Bft) 0,00 %
13.09.2014 15:15 11,6 C 92 % 1016,1 hPa 0,3 l/m 0,0 km/h (0 Bft) N 351 0 min 0,000 mm 1,0 UV-I 130 W/m 10,3 C 11,6 C 0,0 km/h (0 Bft) 0,00 %
13.09.2014 15:30 11,6 C 92 % 1016,2 hPa 0,0 l/m 0,0 km/h (0 Bft) W-SW 254 0 min 0,000 mm 1,0 UV-I 142 W/m 10,3 C 11,6 C 4,0 km/h (1 Bft) 0,00 %
13.09.2014 15:45 11,7 C 92 % 1016,2 hPa 0,3 l/m 4,0 km/h (1 Bft) SW 232 0 min 0,000 mm 1,0 UV-I 198 W/m 10,4 C 11,7 C 4,0 km/h (1 Bft) 0,00 %
13.09.2014 16:00 11,6 C 92 % 1016,2 hPa 0,3 l/m 0,0 km/h (0 Bft) O-NO 59 0 min 0,000 mm 1,0 UV-I 275 W/m 10,3 C 11,6 C 11,9 km/h (2 Bft) 0,00 %
13.09.2014 16:15 11,7 C 92 % 1016,3 hPa 0,0 l/m 0,7 km/h (0 Bft) NO 48 0 min 0,000 mm 0,0 UV-I 0 W/m 10,4 C 11,7 C 4,0 km/h (1 Bft) 0,00 %
13.09.2014 16:30 11,7 C 92 % 1016,3 hPa 0,0 l/m 1,4 km/h (1 Bft) W-SW 251 0 min 0,000 mm 0,0 UV-I 0 W/m 10,4 C 11,7 C 0,0 km/h (0 Bft) 0,00 %
13.09.2014 16:45 11,8 C 92 % 1016,3 hPa 0,0 l/m 6,5 km/h (2 Bft) S-SW 194 0 min 0,000 mm 0,0 UV-I 9 W/m 10,5 C 11,8 C 4,0 km/h (1 Bft) 0,00 %
13.09.2014 17:00 11,9 C 91 % 1016,2 hPa 0,0 l/m 2,9 km/h (1 Bft) W 263 0 min 0,000 mm 0,0 UV-I 0 W/m 10,5 C 11,9 C 0,0 km/h (0 Bft) 0,00 %
13.09.2014 17:15 11,8 C 91 % 1016,7 hPa 0,0 l/m 0,0 km/h (0 Bft) W 275 0 min 0,000 mm 0,0 UV-I 8 W/m 10,4 C 11,8 C 0,0 km/h (0 Bft) 0,00 %
13.09.2014 17:30 11,7 C 91 % 1016,5 hPa 1,5 l/m 0,4 km/h (0 Bft) W-SW 251 0 min 0,000 mm 0,0 UV-I 37 W/m 10,3 C 11,7 C 4,0 km/h (1 Bft) 0,00 %
13.09.2014 17:45 11,6 C 91 % 1016,5 hPa 0,6 l/m 0,0 km/h (0 Bft) SO 134 0 min 0,000 mm 0,0 UV-I 8 W/m 10,2 C 11,6 C 4,0 km/h (1 Bft) 0,00 %
13.09.2014 18:00 11,4 C 91 % 1016,6 hPa 1,5 l/m 0,0 km/h (0 Bft) W-SW 254 0 min 0,000 mm 0,0 UV-I 0 W/m 10,0 C 11,4 C 0,0 km/h (0 Bft) 0,00 %
13.09.2014 18:15 11,5 C 91 % 1016,7 hPa 0,0 l/m 1,4 km/h (1 Bft) W-SW 251 0 min 0,000 mm 0,0 UV-I 0 W/m 10,1 C 11,5 C 4,0 km/h (1 Bft) 0,00 %
13.09.2014 18:30 11,5 C 91 % 1016,8 hPa 0,0 l/m 0,4 km/h (0 Bft) NO 48 0 min 0,000 mm 0,0 UV-I 0 W/m 10,1 C 11,5 C 4,0 km/h (1 Bft) 0,00 %
13.09.2014 18:45 11,5 C 91 % 1016,8 hPa 0,0 l/m 0,0 km/h (0 Bft) SW 235 0 min 0,000 mm 0,0 UV-I 0 W/m 10,1 C 11,5 C 4,0 km/h (1 Bft) 0,00 %
13.09.2014 19:00 11,5 C 91 % 1016,7 hPa 0,0 l/m 0,4 km/h (0 Bft) O-SO 113 0 min 0,000 mm 0,0 UV-I 0 W/m 10,1 C 11,5 C 4,0 km/h (1 Bft) 0,00 %
13.09.2014 19:15 11,5 C 91 % 1017,0 hPa 0,0 l/m 0,4 km/h (0 Bft) W-NW 288 0 min 0,000 mm 0,0 UV-I 0 W/m 10,1 C 11,5 C 4,0 km/h (1 Bft) 0,00 %
13.09.2014 19:30 11,5 C 91 % 1017,1 hPa 0,0 l/m 0,4 km/h (0 Bft) N-NO 28 0 min 0,000 mm 0,0 UV-I 0 W/m 10,1 C 11,5 C 0,0 km/h (0 Bft) 0,00 %
13.09.2014 19:45 11,5 C 91 % 1017,4 hPa 0,0 l/m 0,4 km/h (0 Bft) W-SW 255 0 min 0,000 mm 0,0 UV-I 0 W/m 10,1 C 11,5 C 4,0 km/h (1 Bft) 0,00 %
13.09.2014 20:00 11,5 C 91 % 1017,0 hPa 0,0 l/m 0,4 km/h (0 Bft) W 279 0 min 0,000 mm 0,0 UV-I 0 W/m 10,1 C 11,5 C 4,0 km/h (1 Bft) 0,00 %
13.09.2014 20:15 11,4 C 91 % 1017,3 hPa 0,3 l/m 0,0 km/h (0 Bft) SW 233 0 min 0,000 mm 0,0 UV-I 0 W/m 10,0 C 11,4 C 0,0 km/h (0 Bft) 0,00 %
13.09.2014 20:30 11,5 C 91 % 1017,3 hPa 0,0 l/m 0,7 km/h (0 Bft) NO 50 0 min 0,000 mm 0,0 UV-I 0 W/m 10,1 C 11,5 C 4,0 km/h (1 Bft) 0,00 %
13.09.2014 20:45 11,6 C 91 % 1017,8 hPa 0,0 l/m 0,4 km/h (0 Bft) S-SW 204 0 min 0,000 mm 0,0 UV-I 0 W/m 10,2 C 11,6 C 0,0 km/h (0 Bft) 0,00 %
13.09.2014 21:00 11,6 C 90 % 1017,8 hPa 0,0 l/m 0,0 km/h (0 Bft) SW 234 0 min 0,000 mm 0,0 UV-I 0 W/m 10,0 C 11,6 C 4,0 km/h (1 Bft) 0,00 %
13.09.2014 21:15 11,6 C 90 % 1017,6 hPa 0,0 l/m 0,4 km/h (0 Bft) W-SW 251 0 min 0,000 mm 0,0 UV-I 0 W/m 10,0 C 11,6 C 0,0 km/h (0 Bft) 0,00 %
13.09.2014 21:30 11,7 C 91 % 1017,8 hPa 0,0 l/m 0,0 km/h (0 Bft) W 262 0 min 0,000 mm 0,0 UV-I 0 W/m 10,3 C 11,7 C 0,0 km/h (0 Bft) 0,00 %
13.09.2014 21:45 11,8 C 91 % 1017,7 hPa 0,0 l/m 2,9 km/h (1 Bft) SW 230 0 min 0,000 mm 0,0 UV-I 0 W/m 10,4 C 11,8 C 0,0 km/h (0 Bft) 0,00 %
13.09.2014 22:00 11,8 C 90 % 1017,7 hPa 0,0 l/m 0,0 km/h (0 Bft) S-SW 208 0 min 0,000 mm 0,0 UV-I 0 W/m 10,2 C 11,8 C 0,0 km/h (0 Bft) 0,00 %
13.09.2014 22:15 11,8 C 91 % 1017,7 hPa 0,0 l/m 0,0 km/h (0 Bft) W-SW 255 0 min 0,000 mm 0,0 UV-I 0 W/m 10,4 C 11,8 C 4,0 km/h (1 Bft) 0,00 %
13.09.2014 22:30 11,8 C 91 % 1017,6 hPa 0,0 l/m 0,0 km/h (0 Bft) S-SW 206 0 min 0,000 mm 0,0 UV-I 0 W/m 10,4 C 11,8 C 0,0 km/h (0 Bft) 0,00 %
13.09.2014 22:45 11,9 C 91 % 1017,5 hPa 0,0 l/m 0,0 km/h (0 Bft) S 181 0 min 0,000 mm 0,0 UV-I 0 W/m 10,5 C 11,9 C 0,0 km/h (0 Bft) 0,00 %
13.09.2014 23:00 11,8 C 91 % 1017,4 hPa 0,0 l/m 0,4 km/h (0 Bft) W-SW 256 0 min 0,000 mm 0,0 UV-I 0 W/m 10,4 C 11,8 C 0,0 km/h (0 Bft) 0,00 %
13.09.2014 23:15 11,8 C 91 % 1017,5 hPa 0,0 l/m 0,0 km/h (0 Bft) W-SW 257 0 min 0,000 mm 0,0 UV-I 0 W/m 10,4 C 11,8 C 0,0 km/h (0 Bft) 0,00 %
13.09.2014 23:30 11,9 C 91 % 1017,8 hPa 0,0 l/m 0,0 km/h (0 Bft) W-SW 258 0 min 0,000 mm 0,0 UV-I 0 W/m 10,5 C 11,9 C 0,0 km/h (0 Bft) 0,00 %
13.09.2014 23:45 11,9 C 91 % 1017,8 hPa 0,0 l/m 0,0 km/h (0 Bft) W 259 0 min 0,000 mm 0,0 UV-I 0 W/m 10,5 C 11,9 C 0,0 km/h (0 Bft) 0,00 %
_ Min-Zeit 01:45 02:45 12:45 - 00:00 - - - - - - 04:15 01:45 00:00 00:00
Minimum _ 10,1 C 86 % 1015,7 hPa - 0,0 km/h (0 Bft) - - - - - - 8,3 C 10,1 C 0,0 km/h (0 Bft) 0,00 %
_ Max-Zeit 17:00 12:00 20:45 12:00 12:45 - - 00:00 00:00 12:45 14:00 16:45 17:00 12:00 00:00
Maximum _ 11,9 C 93 % 1017,8 hPa 3,0 l/m 7,2 km/h
SW (2 Bft)
- - 0 min 0,000 mm 2,0 UV-I 295 W/m 10,5 C 11,9 C 11,9 km/h
N-NW (2 Bft)
0,00 %
Durchschnitt _ 11,0 C 91 % 1016,6 hPa #25,8 l/m 0,8 km/h (0 Bft) W-SW - #0 min. #0,000 mm 1,0 UV-I 120 W/m 9,5 C 11,0 C 2,1 km/h (1 Bft) 0,00 %